owner,sensor,date,latitude,longitude,sea_surface_height_above_sea_level,qcFlag 
TCOON,ioos:station:TCOON:518:1,2019-09-01T00:24:00Z,29.5150,-94.5133,1.593,11111222 
TCOON,ioos:station:TCOON:518:1,2019-09-01T01:24:00Z,29.5150,-94.5133,1.595,11111222 
TCOON,ioos:station:TCOON:518:1,2019-09-01T02:24:00Z,29.5150,-94.5133,1.557,11111222 
TCOON,ioos:station:TCOON:518:1,2019-09-01T03:24:00Z,29.5150,-94.5133,1.502,11111222 
TCOON,ioos:station:TCOON:518:1,2019-09-01T04:24:00Z,29.5150,-94.5133,1.434,11111222 
TCOON,ioos:station:TCOON:518:1,2019-09-01T05:24:00Z,29.5150,-94.5133,1.372,11111222 
TCOON,ioos:station:TCOON:518:1,2019-09-01T06:24:00Z,29.5150,-94.5133,1.345,11111222 
TCOON,ioos:station:TCOON:518:1,2019-09-01T07:24:00Z,29.5150,-94.5133,1.318,11111222 
TCOON,ioos:station:TCOON:518:1,2019-09-01T08:24:00Z,29.5150,-94.5133,1.299,11111222 
TCOON,ioos:station:TCOON:518:1,2019-09-01T09:24:00Z,29.5150,-94.5133,1.294,11111222 
TCOON,ioos:station:TCOON:518:1,2019-09-01T10:24:00Z,29.5150,-94.5133,1.333,11111222 
TCOON,ioos:station:TCOON:518:1,2019-09-01T11:24:00Z,29.5150,-94.5133,1.423,11111222 
TCOON,ioos:station:TCOON:518:1,2019-09-01T12:24:00Z,29.5150,-94.5133,1.494,11111222 
TCOON,ioos:station:TCOON:518:1,2019-09-01T13:24:00Z,29.5150,-94.5133,1.524,11111222 
TCOON,ioos:station:TCOON:518:1,2019-09-01T14:24:00Z,29.5150,-94.5133,1.548,11111222 
TCOON,ioos:station:TCOON:518:1,2019-09-01T15:24:00Z,29.5150,-94.5133,1.548,11111222 
TCOON,ioos:station:TCOON:518:1,2019-09-01T16:24:00Z,29.5150,-94.5133,1.534,11111222 
TCOON,ioos:station:TCOON:518:1,2019-09-01T17:24:00Z,29.5150,-94.5133,1.54,11111222 
TCOON,ioos:station:TCOON:518:1,2019-09-01T18:24:00Z,29.5150,-94.5133,1.524,11111222 
TCOON,ioos:station:TCOON:518:1,2019-09-01T19:24:00Z,29.5150,-94.5133,1.522,11111222 
TCOON,ioos:station:TCOON:518:1,2019-09-01T20:24:00Z,29.5150,-94.5133,1.503,11111222 
TCOON,ioos:station:TCOON:518:1,2019-09-01T21:24:00Z,29.5150,-94.5133,1.507,11111222 
TCOON,ioos:station:TCOON:518:1,2019-09-01T22:24:00Z,29.5150,-94.5133,1.543,11111222 
TCOON,ioos:station:TCOON:518:1,2019-09-01T23:24:00Z,29.5150,-94.5133,1.618,11111222 
TCOON,ioos:station:TCOON:518:1,2019-09-02T00:24:00Z,29.5150,-94.5133,1.717,11111222 
TCOON,ioos:station:TCOON:518:1,2019-09-02T01:24:00Z,29.5150,-94.5133,1.739,11111222 
TCOON,ioos:station:TCOON:518:1,2019-09-02T02:24:00Z,29.5150,-94.5133,1.706,11111222 
TCOON,ioos:station:TCOON:518:1,2019-09-02T03:24:00Z,29.5150,-94.5133,1.72,11111222 
TCOON,ioos:station:TCOON:518:1,2019-09-02T04:24:00Z,29.5150,-94.5133,1.69,11111222 
TCOON,ioos:station:TCOON:518:1,2019-09-02T05:24:00Z,29.5150,-94.5133,1.661,11111222 
TCOON,ioos:station:TCOON:518:1,2019-09-02T06:24:00Z,29.5150,-94.5133,1.613,11111222 
TCOON,ioos:station:TCOON:518:1,2019-09-02T07:24:00Z,29.5150,-94.5133,1.583,11111222 
TCOON,ioos:station:TCOON:518:1,2019-09-02T08:24:00Z,29.5150,-94.5133,1.573,11111222 
TCOON,ioos:station:TCOON:518:1,2019-09-02T09:24:00Z,29.5150,-94.5133,1.562,11111222 
TCOON,ioos:station:TCOON:518:1,2019-09-02T10:24:00Z,29.5150,-94.5133,1.541,11111222 
TCOON,ioos:station:TCOON:518:1,2019-09-02T11:24:00Z,29.5150,-94.5133,1.579,11111222 
TCOON,ioos:station:TCOON:518:1,2019-09-02T12:24:00Z,29.5150,-94.5133,1.593,11111222 
TCOON,ioos:station:TCOON:518:1,2019-09-02T15:24:00Z,29.5150,-94.5133,1.668,11111222 
TCOON,ioos:station:TCOON:518:1,2019-09-02T16:24:00Z,29.5150,-94.5133,1.613,11111222 
TCOON,ioos:station:TCOON:518:1,2019-09-02T17:24:00Z,29.5150,-94.5133,1.576,11111222 
TCOON,ioos:station:TCOON:518:1,2019-09-02T18:24:00Z,29.5150,-94.5133,1.504,11111222 
TCOON,ioos:station:TCOON:518:1,2019-09-02T19:24:00Z,29.5150,-94.5133,1.459,11111222 
TCOON,ioos:station:TCOON:518:1,2019-09-02T20:24:00Z,29.5150,-94.5133,1.395,11111222 
TCOON,ioos:station:TCOON:518:1,2019-09-02T21:24:00Z,29.5150,-94.5133,1.407,11111222 
TCOON,ioos:station:TCOON:518:1,2019-09-02T22:24:00Z,29.5150,-94.5133,1.437,11111222 
TCOON,ioos:station:TCOON:518:1,2019-09-02T23:24:00Z,29.5150,-94.5133,1.492,11111222 
TCOON,ioos:station:TCOON:518:1,2019-09-03T00:24:00Z,29.5150,-94.5133,1.609,11111222 
TCOON,ioos:station:TCOON:518:1,2019-09-03T01:24:00Z,29.5150,-94.5133,1.721,11111222 
TCOON,ioos:station:TCOON:518:1,2019-09-03T02:24:00Z,29.5150,-94.5133,1.749,11111222 
TCOON,ioos:station:TCOON:518:1,2019-09-03T03:24:00Z,29.5150,-94.5133,1.772,11111222 
TCOON,ioos:station:TCOON:518:1,2019-09-03T04:24:00Z,29.5150,-94.5133,1.785,11111222 
TCOON,ioos:station:TCOON:518:1,2019-09-03T05:24:00Z,29.5150,-94.5133,1.792,11111222 
TCOON,ioos:station:TCOON:518:1,2019-09-03T06:24:00Z,29.5150,-94.5133,1.781,11111222 
TCOON,ioos:station:TCOON:518:1,2019-09-03T07:24:00Z,29.5150,-94.5133,1.74,11111222 
TCOON,ioos:station:TCOON:518:1,2019-09-03T08:24:00Z,29.5150,-94.5133,1.672,11111222 
TCOON,ioos:station:TCOON:518:1,2019-09-03T09:24:00Z,29.5150,-94.5133,1.631,11111222 
TCOON,ioos:station:TCOON:518:1,2019-09-03T10:24:00Z,29.5150,-94.5133,1.587,11111222 
TCOON,ioos:station:TCOON:518:1,2019-09-03T11:24:00Z,29.5150,-94.5133,1.615,11111222 
TCOON,ioos:station:TCOON:518:1,2019-09-03T12:24:00Z,29.5150,-94.5133,1.68,11111222 
TCOON,ioos:station:TCOON:518:1,2019-09-03T13:24:00Z,29.5150,-94.5133,1.708,11111222 
TCOON,ioos:station:TCOON:518:1,2019-09-03T14:30:00Z,29.5150,-94.5133,1.743,11111222 
TCOON,ioos:station:TCOON:518:1,2019-09-03T15:24:00Z,29.5150,-94.5133,1.744,11111222 
TCOON,ioos:station:TCOON:518:1,2019-09-03T16:24:00Z,29.5150,-94.5133,1.747,11111222 
TCOON,ioos:station:TCOON:518:1,2019-09-03T17:30:00Z,29.5150,-94.5133,1.692,11111222 
TCOON,ioos:station:TCOON:518:1,2019-09-03T18:24:00Z,29.5150,-94.5133,1.648,11111222 
TCOON,ioos:station:TCOON:518:1,2019-09-03T19:24:00Z,29.5150,-94.5133,1.551,11111222 
TCOON,ioos:station:TCOON:518:1,2019-09-03T20:24:00Z,29.5150,-94.5133,1.449,11111222 
TCOON,ioos:station:TCOON:518:1,2019-09-03T21:24:00Z,29.5150,-94.5133,1.449,11111222 
TCOON,ioos:station:TCOON:518:1,2019-09-03T22:24:00Z,29.5150,-94.5133,1.428,11111222 
TCOON,ioos:station:TCOON:518:1,2019-09-03T23:24:00Z,29.5150,-94.5133,1.455,11111222 
TCOON,ioos:station:TCOON:518:1,2019-09-04T00:24:00Z,29.5150,-94.5133,1.539,11111222 
TCOON,ioos:station:TCOON:518:1,2019-09-04T01:24:00Z,29.5150,-94.5133,1.677,11111222 
TCOON,ioos:station:TCOON:518:1,2019-09-04T02:24:00Z,29.5150,-94.5133,1.765,11111222 
TCOON,ioos:station:TCOON:518:1,2019-09-04T03:24:00Z,29.5150,-94.5133,1.783,11111222 
TCOON,ioos:station:TCOON:518:1,2019-09-04T04:24:00Z,29.5150,-94.5133,1.82,11111222 
TCOON,ioos:station:TCOON:518:1,2019-09-04T05:24:00Z,29.5150,-94.5133,1.859,11111222 
TCOON,ioos:station:TCOON:518:1,2019-09-04T06:24:00Z,29.5150,-94.5133,1.88,11111222 
TCOON,ioos:station:TCOON:518:1,2019-09-04T07:24:00Z,29.5150,-94.5133,1.87,11111222 
TCOON,ioos:station:TCOON:518:1,2019-09-04T08:24:00Z,29.5150,-94.5133,1.853,11111222 
TCOON,ioos:station:TCOON:518:1,2019-09-04T09:24:00Z,29.5150,-94.5133,1.853,11111222 
TCOON,ioos:station:TCOON:518:1,2019-09-04T10:24:00Z,29.5150,-94.5133,1.843,11111222 
TCOON,ioos:station:TCOON:518:1,2019-09-04T11:24:00Z,29.5150,-94.5133,1.818,11111222 
TCOON,ioos:station:TCOON:518:1,2019-09-04T12:24:00Z,29.5150,-94.5133,1.758,11111222 
TCOON,ioos:station:TCOON:518:1,2019-09-04T13:24:00Z,29.5150,-94.5133,1.748,11111222 
TCOON,ioos:station:TCOON:518:1,2019-09-04T14:30:00Z,29.5150,-94.5133,1.729,11111222 
TCOON,ioos:station:TCOON:518:1,2019-09-04T15:24:00Z,29.5150,-94.5133,1.695,11111222 
TCOON,ioos:station:TCOON:518:1,2019-09-04T16:24:00Z,29.5150,-94.5133,1.637,11111222 
TCOON,ioos:station:TCOON:518:1,2019-09-04T17:30:00Z,29.5150,-94.5133,1.557,11111222 
TCOON,ioos:station:TCOON:518:1,2019-09-04T18:24:00Z,29.5150,-94.5133,1.427,11111222 
TCOON,ioos:station:TCOON:518:1,2019-09-04T19:24:00Z,29.5150,-94.5133,1.408,11111222 
TCOON,ioos:station:TCOON:518:1,2019-09-04T20:24:00Z,29.5150,-94.5133,1.361,11111222 
TCOON,ioos:station:TCOON:518:1,2019-09-04T21:24:00Z,29.5150,-94.5133,1.318,11111222 
TCOON,ioos:station:TCOON:518:1,2019-09-04T22:24:00Z,29.5150,-94.5133,1.3,11111222 
TCOON,ioos:station:TCOON:518:1,2019-09-04T23:24:00Z,29.5150,-94.5133,1.314,11111222 
TCOON,ioos:station:TCOON:518:1,2019-09-05T00:24:00Z,29.5150,-94.5133,1.366,11111222 
TCOON,ioos:station:TCOON:518:1,2019-09-05T01:24:00Z,29.5150,-94.5133,1.461,11111222 
TCOON,ioos:station:TCOON:518:1,2019-09-05T02:24:00Z,29.5150,-94.5133,1.544,11111222 
TCOON,ioos:station:TCOON:518:1,2019-09-05T03:24:00Z,29.5150,-94.5133,1.625,11111222 
TCOON,ioos:station:TCOON:518:1,2019-09-05T04:24:00Z,29.5150,-94.5133,1.661,11111222 
TCOON,ioos:station:TCOON:518:1,2019-09-05T05:24:00Z,29.5150,-94.5133,1.689,11111222 
TCOON,ioos:station:TCOON:518:1,2019-09-05T06:24:00Z,29.5150,-94.5133,1.728,11111222 
TCOON,ioos:station:TCOON:518:1,2019-09-05T07:24:00Z,29.5150,-94.5133,1.754,11111222 
TCOON,ioos:station:TCOON:518:1,2019-09-05T08:24:00Z,29.5150,-94.5133,1.767,11111222 
TCOON,ioos:station:TCOON:518:1,2019-09-05T09:24:00Z,29.5150,-94.5133,1.763,11111222 
TCOON,ioos:station:TCOON:518:1,2019-09-05T10:24:00Z,29.5150,-94.5133,1.723,11111222 
TCOON,ioos:station:TCOON:518:1,2019-09-05T11:24:00Z,29.5150,-94.5133,1.725,11111222 
TCOON,ioos:station:TCOON:518:1,2019-09-05T12:24:00Z,29.5150,-94.5133,1.679,11111222 
TCOON,ioos:station:TCOON:518:1,2019-09-05T13:24:00Z,29.5150,-94.5133,1.637,11111222 
TCOON,ioos:station:TCOON:518:1,2019-09-05T14:24:00Z,29.5150,-94.5133,1.579,11111222 
TCOON,ioos:station:TCOON:518:1,2019-09-05T15:24:00Z,29.5150,-94.5133,1.553,11111222 
TCOON,ioos:station:TCOON:518:1,2019-09-05T16:24:00Z,29.5150,-94.5133,1.525,11111222 
TCOON,ioos:station:TCOON:518:1,2019-09-05T17:24:00Z,29.5150,-94.5133,1.496,11111222 
TCOON,ioos:station:TCOON:518:1,2019-09-05T18:24:00Z,29.5150,-94.5133,1.442,11111222 
TCOON,ioos:station:TCOON:518:1,2019-09-05T19:24:00Z,29.5150,-94.5133,1.377,11111222 
TCOON,ioos:station:TCOON:518:1,2019-09-05T20:24:00Z,29.5150,-94.5133,1.322,11111222 
TCOON,ioos:station:TCOON:518:1,2019-09-05T21:24:00Z,29.5150,-94.5133,1.278,11111222 
TCOON,ioos:station:TCOON:518:1,2019-09-05T22:24:00Z,29.5150,-94.5133,1.261,11111222 
TCOON,ioos:station:TCOON:518:1,2019-09-05T23:24:00Z,29.5150,-94.5133,1.213,11111222 
TCOON,ioos:station:TCOON:518:1,2019-09-06T00:24:00Z,29.5150,-94.5133,1.179,11111222 
TCOON,ioos:station:TCOON:518:1,2019-09-06T01:24:00Z,29.5150,-94.5133,1.175,11111222 
TCOON,ioos:station:TCOON:518:1,2019-09-06T02:24:00Z,29.5150,-94.5133,1.233,11111222 
TCOON,ioos:station:TCOON:518:1,2019-09-06T03:24:00Z,29.5150,-94.5133,1.343,11111222 
TCOON,ioos:station:TCOON:518:1,2019-09-06T04:24:00Z,29.5150,-94.5133,1.428,11111222 
TCOON,ioos:station:TCOON:518:1,2019-09-06T06:42:00Z,29.5150,-94.5133,1.511,11111222 
TCOON,ioos:station:TCOON:518:1,2019-09-06T07:36:00Z,29.5150,-94.5133,1.585,11111222 
TCOON,ioos:station:TCOON:518:1,2019-09-06T08:24:00Z,29.5150,-94.5133,1.608,11111222 
TCOON,ioos:station:TCOON:518:1,2019-09-06T09:24:00Z,29.5150,-94.5133,1.634,11111222 
TCOON,ioos:station:TCOON:518:1,2019-09-06T10:24:00Z,29.5150,-94.5133,1.637,11111222 
TCOON,ioos:station:TCOON:518:1,2019-09-06T11:24:00Z,29.5150,-94.5133,1.632,11111222 
TCOON,ioos:station:TCOON:518:1,2019-09-06T12:24:00Z,29.5150,-94.5133,1.608,11111222 
TCOON,ioos:station:TCOON:518:1,2019-09-06T13:24:00Z,29.5150,-94.5133,1.547,11111222 
TCOON,ioos:station:TCOON:518:1,2019-09-06T14:24:00Z,29.5150,-94.5133,1.491,11111222 
TCOON,ioos:station:TCOON:518:1,2019-09-06T15:24:00Z,29.5150,-94.5133,1.464,11111222 
TCOON,ioos:station:TCOON:518:1,2019-09-06T16:24:00Z,29.5150,-94.5133,1.434,11111222 
TCOON,ioos:station:TCOON:518:1,2019-09-06T17:24:00Z,29.5150,-94.5133,1.404,11111222 
TCOON,ioos:station:TCOON:518:1,2019-09-06T18:24:00Z,29.5150,-94.5133,1.373,11111222 
TCOON,ioos:station:TCOON:518:1,2019-09-06T19:24:00Z,29.5150,-94.5133,1.327,11111222 
TCOON,ioos:station:TCOON:518:1,2019-09-06T20:24:00Z,29.5150,-94.5133,1.261,11111222 
TCOON,ioos:station:TCOON:518:1,2019-09-06T21:24:00Z,29.5150,-94.5133,1.207,11111222 
TCOON,ioos:station:TCOON:518:1,2019-09-06T22:24:00Z,29.5150,-94.5133,1.171,11111222 
TCOON,ioos:station:TCOON:518:1,2019-09-06T23:24:00Z,29.5150,-94.5133,1.138,11111222 
TCOON,ioos:station:TCOON:518:1,2019-09-07T00:24:00Z,29.5150,-94.5133,1.103,11111222 
TCOON,ioos:station:TCOON:518:1,2019-09-07T01:24:00Z,29.5150,-94.5133,1.099,11111222 
TCOON,ioos:station:TCOON:518:1,2019-09-07T02:24:00Z,29.5150,-94.5133,1.091,11111222 
TCOON,ioos:station:TCOON:518:1,2019-09-07T03:24:00Z,29.5150,-94.5133,1.171,11111222 
TCOON,ioos:station:TCOON:518:1,2019-09-07T04:24:00Z,29.5150,-94.5133,1.27,11111222 
TCOON,ioos:station:TCOON:518:1,2019-09-07T05:24:00Z,29.5150,-94.5133,1.359,11111222 
TCOON,ioos:station:TCOON:518:1,2019-09-07T06:24:00Z,29.5150,-94.5133,1.426,11111222 
TCOON,ioos:station:TCOON:518:1,2019-09-07T07:24:00Z,29.5150,-94.5133,1.488,11111222 
TCOON,ioos:station:TCOON:518:1,2019-09-07T08:24:00Z,29.5150,-94.5133,1.545,11111222 
TCOON,ioos:station:TCOON:518:1,2019-09-07T09:24:00Z,29.5150,-94.5133,1.582,11111222 
TCOON,ioos:station:TCOON:518:1,2019-09-07T10:24:00Z,29.5150,-94.5133,1.616,11111222 
TCOON,ioos:station:TCOON:518:1,2019-09-07T11:24:00Z,29.5150,-94.5133,1.627,11111222 
TCOON,ioos:station:TCOON:518:1,2019-09-07T12:24:00Z,29.5150,-94.5133,1.609,11111222 
TCOON,ioos:station:TCOON:518:1,2019-09-07T13:24:00Z,29.5150,-94.5133,1.576,11111222 
TCOON,ioos:station:TCOON:518:1,2019-09-07T14:24:00Z,29.5150,-94.5133,1.577,11111222 
TCOON,ioos:station:TCOON:518:1,2019-09-07T15:24:00Z,29.5150,-94.5133,1.579,11111222 
TCOON,ioos:station:TCOON:518:1,2019-09-07T16:24:00Z,29.5150,-94.5133,1.527,11111222 
TCOON,ioos:station:TCOON:518:1,2019-09-07T17:24:00Z,29.5150,-94.5133,1.469,11111222 
TCOON,ioos:station:TCOON:518:1,2019-09-07T18:24:00Z,29.5150,-94.5133,1.419,11111222 
TCOON,ioos:station:TCOON:518:1,2019-09-07T19:24:00Z,29.5150,-94.5133,1.369,11111222 
TCOON,ioos:station:TCOON:518:1,2019-09-07T20:24:00Z,29.5150,-94.5133,1.32,11111222 
TCOON,ioos:station:TCOON:518:1,2019-09-07T21:24:00Z,29.5150,-94.5133,1.278,11111222 
TCOON,ioos:station:TCOON:518:1,2019-09-07T22:24:00Z,29.5150,-94.5133,1.22,11111222 
TCOON,ioos:station:TCOON:518:1,2019-09-07T23:24:00Z,29.5150,-94.5133,1.153,11111222 
TCOON,ioos:station:TCOON:518:1,2019-09-08T00:24:00Z,29.5150,-94.5133,1.092,11111222 
TCOON,ioos:station:TCOON:518:1,2019-09-08T01:24:00Z,29.5150,-94.5133,1.068,11111222 
TCOON,ioos:station:TCOON:518:1,2019-09-08T02:24:00Z,29.5150,-94.5133,1.071,11111222 
TCOON,ioos:station:TCOON:518:1,2019-09-08T03:24:00Z,29.5150,-94.5133,1.113,11111222 
TCOON,ioos:station:TCOON:518:1,2019-09-08T04:24:00Z,29.5150,-94.5133,1.189,11111222 
TCOON,ioos:station:TCOON:518:1,2019-09-08T05:24:00Z,29.5150,-94.5133,1.275,11111222 
TCOON,ioos:station:TCOON:518:1,2019-09-08T06:24:00Z,29.5150,-94.5133,1.338,11111222 
TCOON,ioos:station:TCOON:518:1,2019-09-08T07:24:00Z,29.5150,-94.5133,1.422,11111222 
TCOON,ioos:station:TCOON:518:1,2019-09-08T08:24:00Z,29.5150,-94.5133,1.515,11111222 
TCOON,ioos:station:TCOON:518:1,2019-09-08T09:24:00Z,29.5150,-94.5133,1.562,11111222 
TCOON,ioos:station:TCOON:518:1,2019-09-08T10:24:00Z,29.5150,-94.5133,1.592,11111222 
TCOON,ioos:station:TCOON:518:1,2019-09-08T11:24:00Z,29.5150,-94.5133,1.605,11111222 
TCOON,ioos:station:TCOON:518:1,2019-09-08T12:24:00Z,29.5150,-94.5133,1.616,11111222 
TCOON,ioos:station:TCOON:518:1,2019-09-08T13:24:00Z,29.5150,-94.5133,1.618,11111222 
TCOON,ioos:station:TCOON:518:1,2019-09-08T14:24:00Z,29.5150,-94.5133,1.623,11111222 
TCOON,ioos:station:TCOON:518:1,2019-09-08T15:24:00Z,29.5150,-94.5133,1.584,11111222 
TCOON,ioos:station:TCOON:518:1,2019-09-08T16:24:00Z,29.5150,-94.5133,1.58,11111222 
TCOON,ioos:station:TCOON:518:1,2019-09-08T17:24:00Z,29.5150,-94.5133,1.543,11111222 
TCOON,ioos:station:TCOON:518:1,2019-09-08T18:24:00Z,29.5150,-94.5133,1.526,11111222 
TCOON,ioos:station:TCOON:518:1,2019-09-08T19:24:00Z,29.5150,-94.5133,1.474,11111222 
TCOON,ioos:station:TCOON:518:1,2019-09-08T20:24:00Z,29.5150,-94.5133,1.425,11111222 
TCOON,ioos:station:TCOON:518:1,2019-09-08T21:24:00Z,29.5150,-94.5133,1.391,11111222 
TCOON,ioos:station:TCOON:518:1,2019-09-08T22:24:00Z,29.5150,-94.5133,1.339,11111222 
TCOON,ioos:station:TCOON:518:1,2019-09-08T23:24:00Z,29.5150,-94.5133,1.235,11111222 
TCOON,ioos:station:TCOON:518:1,2019-09-09T00:24:00Z,29.5150,-94.5133,1.239,11111222 
TCOON,ioos:station:TCOON:518:1,2019-09-09T01:24:00Z,29.5150,-94.5133,1.203,11111222 
TCOON,ioos:station:TCOON:518:1,2019-09-09T02:24:00Z,29.5150,-94.5133,1.181,11111222 
TCOON,ioos:station:TCOON:518:1,2019-09-09T03:24:00Z,29.5150,-94.5133,1.176,11111222 
TCOON,ioos:station:TCOON:518:1,2019-09-09T04:24:00Z,29.5150,-94.5133,1.189,11111222 
TCOON,ioos:station:TCOON:518:1,2019-09-09T05:24:00Z,29.5150,-94.5133,1.217,11111222 
TCOON,ioos:station:TCOON:518:1,2019-09-09T06:24:00Z,29.5150,-94.5133,1.314,11111222 
TCOON,ioos:station:TCOON:518:1,2019-09-09T07:24:00Z,29.5150,-94.5133,1.37,11111222 
TCOON,ioos:station:TCOON:518:1,2019-09-09T08:24:00Z,29.5150,-94.5133,1.458,11111222 
TCOON,ioos:station:TCOON:518:1,2019-09-09T09:24:00Z,29.5150,-94.5133,1.512,11111222 
TCOON,ioos:station:TCOON:518:1,2019-09-09T10:24:00Z,29.5150,-94.5133,1.572,11111222 
TCOON,ioos:station:TCOON:518:1,2019-09-09T11:24:00Z,29.5150,-94.5133,1.611,11111222 
TCOON,ioos:station:TCOON:518:1,2019-09-09T12:24:00Z,29.5150,-94.5133,1.621,11111222 
TCOON,ioos:station:TCOON:518:1,2019-09-09T13:24:00Z,29.5150,-94.5133,1.605,11111222 
TCOON,ioos:station:TCOON:518:1,2019-09-09T14:36:00Z,29.5150,-94.5133,1.634,11111222 
TCOON,ioos:station:TCOON:518:1,2019-09-09T15:24:00Z,29.5150,-94.5133,1.6,11111222 
TCOON,ioos:station:TCOON:518:1,2019-09-09T16:24:00Z,29.5150,-94.5133,1.561,11111222 
TCOON,ioos:station:TCOON:518:1,2019-09-09T17:24:00Z,29.5150,-94.5133,1.514,11111222 
TCOON,ioos:station:TCOON:518:1,2019-09-09T21:24:00Z,29.5150,-94.5133,1.456,11111222 
TCOON,ioos:station:TCOON:518:1,2019-09-09T22:24:00Z,29.5150,-94.5133,1.421,11111222 
TCOON,ioos:station:TCOON:518:1,2019-09-09T23:24:00Z,29.5150,-94.5133,1.406,11111222 
TCOON,ioos:station:TCOON:518:1,2019-09-10T00:24:00Z,29.5150,-94.5133,1.356,11111222 
TCOON,ioos:station:TCOON:518:1,2019-09-10T01:24:00Z,29.5150,-94.5133,1.31,11111222 
TCOON,ioos:station:TCOON:518:1,2019-09-10T02:24:00Z,29.5150,-94.5133,1.265,11111222 
TCOON,ioos:station:TCOON:518:1,2019-09-10T03:24:00Z,29.5150,-94.5133,1.185,11111222 
TCOON,ioos:station:TCOON:518:1,2019-09-10T04:24:00Z,29.5150,-94.5133,1.219,11111222 
TCOON,ioos:station:TCOON:518:1,2019-09-10T05:36:00Z,29.5150,-94.5133,1.235,11111222 
TCOON,ioos:station:TCOON:518:1,2019-09-10T06:24:00Z,29.5150,-94.5133,1.281,11111222 
TCOON,ioos:station:TCOON:518:1,2019-09-10T07:24:00Z,29.5150,-94.5133,1.376,11111222 
TCOON,ioos:station:TCOON:518:1,2019-09-10T08:24:00Z,29.5150,-94.5133,1.482,11111222 
TCOON,ioos:station:TCOON:518:1,2019-09-10T09:24:00Z,29.5150,-94.5133,1.564,11111222 
TCOON,ioos:station:TCOON:518:1,2019-09-10T10:24:00Z,29.5150,-94.5133,1.609,11111222 
TCOON,ioos:station:TCOON:518:1,2019-09-10T11:24:00Z,29.5150,-94.5133,1.643,11111222 
TCOON,ioos:station:TCOON:518:1,2019-09-10T12:24:00Z,29.5150,-94.5133,1.667,11111222 
TCOON,ioos:station:TCOON:518:1,2019-09-10T13:24:00Z,29.5150,-94.5133,1.684,11111222 
TCOON,ioos:station:TCOON:518:1,2019-09-10T14:24:00Z,29.5150,-94.5133,1.704,11111222 
TCOON,ioos:station:TCOON:518:1,2019-09-10T15:24:00Z,29.5150,-94.5133,1.693,11111222 
TCOON,ioos:station:TCOON:518:1,2019-09-10T16:24:00Z,29.5150,-94.5133,1.688,11111222 
TCOON,ioos:station:TCOON:518:1,2019-09-10T17:24:00Z,29.5150,-94.5133,1.659,11111222 
TCOON,ioos:station:TCOON:518:1,2019-09-10T18:24:00Z,29.5150,-94.5133,1.625,11111222 
TCOON,ioos:station:TCOON:518:1,2019-09-10T19:30:00Z,29.5150,-94.5133,1.621,11111222 
TCOON,ioos:station:TCOON:518:1,2019-09-10T20:24:00Z,29.5150,-94.5133,1.591,11111222 
TCOON,ioos:station:TCOON:518:1,2019-09-10T21:24:00Z,29.5150,-94.5133,1.584,11111222 
TCOON,ioos:station:TCOON:518:1,2019-09-10T22:24:00Z,29.5150,-94.5133,1.517,11111222 
TCOON,ioos:station:TCOON:518:1,2019-09-10T23:24:00Z,29.5150,-94.5133,1.476,11111222 
TCOON,ioos:station:TCOON:518:1,2019-09-11T00:24:00Z,29.5150,-94.5133,1.429,11111222 
TCOON,ioos:station:TCOON:518:1,2019-09-11T01:24:00Z,29.5150,-94.5133,1.398,11111222 
TCOON,ioos:station:TCOON:518:1,2019-09-11T02:24:00Z,29.5150,-94.5133,1.324,11111222 
TCOON,ioos:station:TCOON:518:1,2019-09-11T03:24:00Z,29.5150,-94.5133,1.279,11111222 
TCOON,ioos:station:TCOON:518:1,2019-09-11T04:24:00Z,29.5150,-94.5133,1.245,11111222 
TCOON,ioos:station:TCOON:518:1,2019-09-11T05:36:00Z,29.5150,-94.5133,1.259,11111222 
TCOON,ioos:station:TCOON:518:1,2019-09-11T06:24:00Z,29.5150,-94.5133,1.288,11111222 
TCOON,ioos:station:TCOON:518:1,2019-09-11T07:24:00Z,29.5150,-94.5133,1.359,11111222 
TCOON,ioos:station:TCOON:518:1,2019-09-11T08:24:00Z,29.5150,-94.5133,1.474,11111222 
TCOON,ioos:station:TCOON:518:1,2019-09-11T09:24:00Z,29.5150,-94.5133,1.542,11111222 
TCOON,ioos:station:TCOON:518:1,2019-09-11T10:24:00Z,29.5150,-94.5133,1.604,11111222 
TCOON,ioos:station:TCOON:518:1,2019-09-11T11:24:00Z,29.5150,-94.5133,1.65,11111222 
TCOON,ioos:station:TCOON:518:1,2019-09-11T12:24:00Z,29.5150,-94.5133,1.686,11111222 
TCOON,ioos:station:TCOON:518:1,2019-09-11T13:24:00Z,29.5150,-94.5133,1.73,11111222 
TCOON,ioos:station:TCOON:518:1,2019-09-11T14:24:00Z,29.5150,-94.5133,1.802,11111222 
TCOON,ioos:station:TCOON:518:1,2019-09-11T15:30:00Z,29.5150,-94.5133,1.741,11111222 
TCOON,ioos:station:TCOON:518:1,2019-09-11T16:24:00Z,29.5150,-94.5133,1.704,11111222 
TCOON,ioos:station:TCOON:518:1,2019-09-11T17:24:00Z,29.5150,-94.5133,1.672,11111222 
TCOON,ioos:station:TCOON:518:1,2019-09-11T18:24:00Z,29.5150,-94.5133,1.649,11111222 
TCOON,ioos:station:TCOON:518:1,2019-09-11T19:24:00Z,29.5150,-94.5133,1.593,11111222 
TCOON,ioos:station:TCOON:518:1,2019-09-11T20:24:00Z,29.5150,-94.5133,1.565,11111222 
TCOON,ioos:station:TCOON:518:1,2019-09-11T21:24:00Z,29.5150,-94.5133,1.528,11111222 
TCOON,ioos:station:TCOON:518:1,2019-09-11T22:24:00Z,29.5150,-94.5133,1.538,11111222 
TCOON,ioos:station:TCOON:518:1,2019-09-11T23:24:00Z,29.5150,-94.5133,1.514,11111222 
TCOON,ioos:station:TCOON:518:1,2019-09-12T00:24:00Z,29.5150,-94.5133,1.48,11111222 
TCOON,ioos:station:TCOON:518:1,2019-09-12T01:24:00Z,29.5150,-94.5133,1.473,11111222 
TCOON,ioos:station:TCOON:518:1,2019-09-12T02:24:00Z,29.5150,-94.5133,1.475,11111222 
TCOON,ioos:station:TCOON:518:1,2019-09-12T03:24:00Z,29.5150,-94.5133,1.457,11111222 
TCOON,ioos:station:TCOON:518:1,2019-09-12T04:24:00Z,29.5150,-94.5133,1.391,11111222 
TCOON,ioos:station:TCOON:518:1,2019-09-12T05:24:00Z,29.5150,-94.5133,1.36,11111222 
TCOON,ioos:station:TCOON:518:1,2019-09-12T06:24:00Z,29.5150,-94.5133,1.331,11111222 
TCOON,ioos:station:TCOON:518:1,2019-09-12T07:24:00Z,29.5150,-94.5133,1.34,11111222 
TCOON,ioos:station:TCOON:518:1,2019-09-12T08:24:00Z,29.5150,-94.5133,1.413,11111222 
TCOON,ioos:station:TCOON:518:1,2019-09-12T09:24:00Z,29.5150,-94.5133,1.525,11111222 
TCOON,ioos:station:TCOON:518:1,2019-09-12T10:24:00Z,29.5150,-94.5133,1.602,11111222 
TCOON,ioos:station:TCOON:518:1,2019-09-12T11:24:00Z,29.5150,-94.5133,1.637,11111222 
TCOON,ioos:station:TCOON:518:1,2019-09-12T12:24:00Z,29.5150,-94.5133,1.69,11111222 
TCOON,ioos:station:TCOON:518:1,2019-09-12T13:24:00Z,29.5150,-94.5133,1.711,11111222 
TCOON,ioos:station:TCOON:518:1,2019-09-12T14:24:00Z,29.5150,-94.5133,1.728,11111222 
TCOON,ioos:station:TCOON:518:1,2019-09-12T15:24:00Z,29.5150,-94.5133,1.727,11111222 
TCOON,ioos:station:TCOON:518:1,2019-09-13T19:24:00Z,29.5150,-94.5133,1.593,11111222 
TCOON,ioos:station:TCOON:518:1,2019-09-13T20:24:00Z,29.5150,-94.5133,1.588,11111222 
TCOON,ioos:station:TCOON:518:1,2019-09-13T21:24:00Z,29.5150,-94.5133,1.607,11111222 
TCOON,ioos:station:TCOON:518:1,2019-09-13T22:24:00Z,29.5150,-94.5133,1.602,11111222 
TCOON,ioos:station:TCOON:518:1,2019-09-13T23:24:00Z,29.5150,-94.5133,1.641,11111222 
TCOON,ioos:station:TCOON:518:1,2019-09-14T00:24:00Z,29.5150,-94.5133,1.684,11111222 
TCOON,ioos:station:TCOON:518:1,2019-09-14T01:24:00Z,29.5150,-94.5133,1.712,11111222 